Location: Belloy
(55.7522°N, 118.2333°W)
Time: 23:42:49
(UTC+00:00)

Envisat - Pass Details

Date: 03 December 2021
Orbit: 764 x 766 km, 98.2° (Epoch: 27 January)

Event Time Altitude Azimuth Distance (km) Brightness Sun altitude
Rises 14:26:05 0° 11° (NNE) 3,250 6.1 -12.4°
Reaches altitude 10° 14:28:37 10° 2° (N) 2,319 5.3 -12.1°
Maximum altitude 14:33:03 31° 301° (WNW) 1,324 3.7 -11.5°
Drops below altitude 10° 14:37:29 10° 241° (WSW) 2,306 5.1 -10.9°
Sets 14:39:59 0° 231° (SW) 3,228 6.0 -10.6°
